This is the latest recevied weather packets stored in our database for station/object R1CBW-13. If no packets are shown the sender has not sent any weather packets the latest 10 day(s).
| Time | Temp. | Humidity | Pressure | Rain* | Wind** | Luminosity | Snow |
|---|---|---|---|---|---|---|---|
| 1777298775 | 6.67° C | 30% | 1005 hPa | 0 mm | - | - | - |
| 1777298715 | 6.67° C | 30% | 1005.2 hPa | 0 mm | - | - | - |
| 1777298655 | 6.11° C | 30% | 1005 hPa | 0 mm | - | - | - |
| 1777298595 | 6.67° C | 30% | 1005 hPa | 0 mm | - | - | - |
| 1777298535 | 7.22° C | 29% | 1005.1 hPa | 0 mm | - | - | - |
| 1777298475 | 6.67° C | 30% | 1005.3 hPa | 0 mm | - | - | - |
| 1777298415 | 7.22° C | 30% | 1005.1 hPa | 0 mm | - | - | - |
| 1777298355 | 6.67° C | 30% | 1004.9 hPa | 0 mm | - | - | - |
| 1777298295 | 6.67° C | 30% | 1005.3 hPa | 0 mm | - | - | - |
| 1777298235 | 6.67° C | 30% | 1005.3 hPa | 0 mm | - | - | - |
| 1777298175 | 6.67° C | 31% | 1005.1 hPa | 0 mm | - | - | - |
| 1777298115 | 6.67° C | 30% | 1005.4 hPa | 0 mm | - | - | - |
| 1777298055 | 6.67° C | 31% | 1005.2 hPa | 0 mm | - | - | - |
| 1777297995 | 6.67° C | 31% | 1005 hPa | 0 mm | - | - | - |
| 1777297935 | 6.67° C | 31% | 1005.2 hPa | 0 mm | - | - | - |
| 1777297875 | 6.67° C | 31% | 1005 hPa | 0 mm | - | - | - |
| 1777297815 | 6.67° C | 31% | 1005 hPa | 0 mm | - | - | - |
| 1777297755 | 6.11° C | 31% | 1005.2 hPa | 0 mm | - | - | - |
| 1777297695 | 7.22° C | 31% | 1005 hPa | 0 mm | - | - | - |
| 1777297635 | 7.22° C | 30% | 1004.9 hPa | 0 mm | - | - | - |
| 1777297575 | 7.22° C | 31% | 1004.9 hPa | 0 mm | - | - | - |
| 1777297515 | 7.22° C | 30% | 1005.1 hPa | 0 mm | - | - | - |
| 1777297455 | 6.67° C | 32% | 1005.1 hPa | 0 mm | - | - | - |
| 1777297395 | 7.22° C | 31% | 1005 hPa | 0 mm | - | - | - |
| 1777297335 | 6.67° C | 31% | 1005 hPa | 0 mm | - | - | - |
* Rain latest hour (hover to see other rain measurements)
** Current wind speed in m/s (hover to see current wind gust speed)